Tracking 27420 objects as of 28-May-2023
HD Live streaming from Space Station
objects crossing your sky now

STARLINK-5758

Track STARLINK-5758 now!
10-day predictions
STARLINK-5758 is classified as:


NORAD ID: 56037
Int'l Code: 2023-042BD
Perigee: 361.4 km
Apogee: 362.9 km
Inclination: 43.0 °
Period: 91.6 minutes
Semi major axis: 6733 km
RCS: Unknown
Launch date: March 24, 2022
Source: United States (US)
Launch site: AIR FORCE EASTERN TEST RANGE (AFETR)
Your satellite tracking list
Your tracking list is empty




NASA's NSSDC Master Catalog

Two Line Element Set (TLE):
1 56037U 23042BD  23148.39859113  .00000628  00000-0  82341-5 0  9998
2 56037  42.9994 163.4605 0001125 271.5180  88.5559 15.71357499 10549
Source of the keplerian elements: AFSPC